Powerscourt Airfield

Jump to: basic info | weather | comments

Related pages: nearby airports | nearby navaids | notams | map

Basic information (top)

Codes: EIPT
Location: lon 53.178301, lat -6.196495, elev 470 ft / 143 m msl
Status: small_airport

Weather (top)

Current conditions for Casement Air Base 12nm (22km) NW (rec'd 2014/09/02 08:30Z):

EIME 020830Z 08002KT 9999 BKN030 15/10 Q1024

Airport forecast for Dublin Airport 15nm (27km) N (rec'd 2014/09/02 06:39Z):

TAF COR EIDW 020731Z 0206/0306 VRB03KT 9999 OVC030 
      BECMG 0209/0211 12008KT 
      BECMG 0223/0302 VRB03KT PROB40 0301/0306 3000 BR BKN006

Latest comments (top)

Reopened: does anybody know about reopening and ppr? [read]

Operations suspended at this airport: Air Accident Investigation Unit Interim ... [read]

re: Powerscourt Airfield: Thank you very much - I've updated the position. [read]

Powerscourt Airfield: Position 53:10.787N 006:12.075W ... [read]

More... (top)

See also NOTAMs and nearby airports and navaids, or visit the Powerscourt Airfield page at the main OurAirports website..